SCP
0 0 0 0 0 0 0 0 0 0 0 0 1 1 1 1 1 1 1 1 1 2 2 2 2 2 2 1 1 2 2 2 2 2 2 1 2 2 2 2 1 1 1 1
0 0 0 0 0 0 0 0 0 0 0 0 1 1 1 1 1 1 1 1 1 1 2 2 2 2 2 2 2 2 2 2 2 2 2 2 2 2 2 2 2 1 1 1
0 0 0 0 0 0 0 0 0 0 0 1 1 1 1 1 1 1 1 1 1 1 1 2 2 2 2 2 2 2 2 2 2 2 2 2 2 2 2 2 2 1 1 1
0 0 0 0 0 0 0 0 0 0 0 1 1 1 1 1 1 1 1 1 1 1 1 1 1 1 1 1 2 2 2 2 2 2 2 1 1 2 2 2 2 1 1 1
0 0 0 0 0 0 0 0 0 0 0 0 1 1 1 1 1 1 1 1 1 1 1 1 1 1 1 1 1 1 1 2 2 1 1 1 1 2 2 2 2 2 1 1
0 0 0 0 0 0 0 0 0 0 0 0 0 0 1 1 1 2 2 2 2 2 1 1 1 1 1 1 1 1 1 1 1 1 1 1 1 1 2 2 2 1 1 1
0 0 0 0 0 0 0 0 0 0 0 0 0 1 1 1 1 2 2 2 2 2 2 1 2 2 1 1 1 1 1 1 1 1 1 1 1 1 1 2 2 1 1 1
0 0 0 0 0 0 0 0 0 0 0 0 1 1 1 1 1 1 1 1 2 2 2 2 2 2 2 2 2 1 1 1 1 1 1 1 1 1 1 1 1 1 1 1
0 0 0 0 0 0 0 0 0 0 0 0 1 1 1 1 1 1 1 1 1 2 2 2 2 2 2 2 2 2 2 1 1 1 1 1 1 1 1 1 1 1 1 1
0 0 0 0 0 0 0 0 0 0 0 0 0 1 1 1 1 1 1 1 1 2 2 2 2 2 2 2 2 2 2 2 2 1 1 2 2 1 1 1 1 1 1 1
0 0 0 0 0 0 0 0 0 0 0 0 0 1 1 1 1 1 1 1 1 1 1 1 1 2 2 2 2 2 2 2 2 1 1 2 1 1 1 1 1 1 1 1
0 0 0 0 0 0 0 0 0 0 0 0 0 1 1 1 1 1 1 1 1 1 1 1 1 1 1 1 2 2 2 2 1 1 1 1 1 1 1 0 0 0 0 1
0 0 0 0 0 0 0 0 0 0 0 0 0 1 1 1 1 1 1 1 1 1 1 1 1 1 1 1 1 1 1 1 1 1 1 1 1 1 1 0 0 0 0 0
0 0 0 0 0 0 0 0 0 0 0 0 0 1 1 1 1 1 1 1 1 1 1 1 1 1 1 1 1 1 1 1 1 1 1 1 1 1 1 1 0 0 0 0
0 0 0 0 0 0 0 0 0 0 0 0 0 1 1 1 1 1 1 1 1 1 1 1 1 1 1 1 1 1 1 1 1 1 1 1 1 1 1 1 1 0 0 0
0 0 0 0 0 0 0 0 0 0 0 0 0 1 1 1 1 1 1 1 1 1 1 1 1 1 1 1 1 1 1 1 1 1 1 1 1 1 1 1 1 0 0 0
0 0 0 0 0 0 0 0 0 0 0 0 0 1 1 1 1 1 1 1 1 1 1 1 1 1 1 1 1 1 1 1 1 1 1 1 1 1 1 1 1 0 0 0
0 0 0 0 0 0 0 0 0 0 0 0 1 1 1 1 1 1 1 1 1 1 1 1 1 1 1 1 1 1 1 1 1 1 1 1 1 1 1 1 0 0 0 0
0 0 0 0 0 0 0 0 0 0 0 1 1 1 1 1 1 1 1 1 1 1 1 1 1 1 1 1 1 1 1 0 1 1 1 1 1 1 1 0 0 0 0 0
0 0 0 0 0 0 0 0 0 0 1 1 1 1 1 1 1 1 1 1 1 1 1 1 1 1 1 0 0 0 0 0 0 0 0 0 0 0 0 0 0 0 0 0
0 0 0 0 0 0 0 0 1 1 1 1 1 1 1 1 1 1 1 1 1 1 1 0 0 1 0 0 0 0 0 0 0 0 0 0 0 0 0 0 0 0 0 0
0 0 0 0 0 0 1 1 1 1 1 1 1 1 1 1 1 1 1 1 1 1 0 0 0 0 0 0 0 0 0 0 0 0 0 0 0 0 0 0 0 0 0 0
0 0 0 0 0 1 1 1 1 1 1 1 1 1 1 1 1 1 1 1 0 0 0 0 0 0 0 0 0 0 0 0 0 0 0 0 0 0 0 0 0 0 0 0
0 0 0 0 1 1 1 1 1 1 1 1 1 1 1 1 1 1 1 0 0 0 0 0 0 0 0 0 0 0 0 0 0 0 0 0 0 0 0 0 0 0 0 0
0 0 0 0 0 0 1 0 0 1 1 1 1 1 1 1 1 1 0 0 0 0 0 0 0 0 0 0 0 0 0 0 0 0 0 0 0 0 0 0 0 0 0 0
0 0 0 0 0 0 0 0 0 0 0 0 0 0 0 0 0 0 0 0 0 0 0 0 0 0 0 0 0 0 0 0 0 0 0 0 0 0 0 0 0 0 0 0
0 0 0 0 0 0 0 0 0 0 0 0 0 0 0 0 0 0 0 0 0 0 0 0 0 0 0 0 0 0 0 0 0 0 0 0 0 0 0 0 0 0 0 0
Wind_Speed
13 10 10 12 13 13 11 10 10 7 5 2 2 5 5 5 5 6 6 6 5 4 5 4 4 4 3 3 3 4 4 4 3 3 2 1 2 2 2 2 3 2 2 3
13 12 12 12 12 13 12 10 9 7 4 2 3 4 5 4 4 5 5 5 5 5 5 5 4 4 4 3 3 3 3 3 3 2 2 2 2 2 2 2 2 2 3 3
13 13 13 14 11 12 9 6 8 7 4 1 4 5 4 4 4 5 4 4 4 4 4 4 5 4 4 3 3 3 3 3 2 2 2 2 3 2 2 2 2 3 3 3
12 13 17 9 6 7 5 5 6 4 3 1 3 3 3 4 4 4 3 2 3 3 3 3 4 4 4 4 3 3 3 3 2 2 2 2 2 2 3 2 3 3 3 3
11 14 13 8 7 8 6 6 5 3 3 2 3 2 3 5 5 4 3 2 1 2 3 3 3 3 4 4 3 3 3 3 3 3 3 3 3 3 3 3 3 4 3 4
11 13 12 6 7 8 7 5 3 2 2 0 1 2 2 5 5 5 4 3 2 1 3 3 3 3 3 3 4 3 3 2 2 2 3 3 3 3 3 3 4 4 4 4
13 14 8 5 8 8 7 2 3 3 4 3 2 3 5 5 5 5 4 3 2 1 1 2 3 3 3 2 3 3 2 2 2 2 3 3 3 3 3 4 4 4 4 4
10 12 6 4 7 5 3 3 2 3 3 4 4 5 5 4 4 3 3 3 2 1 1 1 2 2 2 2 2 2 2 2 3 3 4 4 3 3 4 4 5 5 4 5
5 4 2 2 3 4 4 3 3 3 3 3 2 3 2 2 2 2 2 1 1 1 1 1 1 2 2 1 1 1 2 3 3 3 3 3 4 4 4 4 5 4 4 4
5 4 4 3 3 4 5 4 3 3 2 2 1 2 2 1 1 1 1 0 1 1 1 0 1 1 2 1 1 2 2 3 3 3 4 4 3 4 4 4 4 3 3 3
7 5 5 5 4 5 6 5 4 2 2 2 1 0 1 0 1 0 1 1 1 1 1 1 1 2 2 1 2 3 3 4 4 4 4 3 2 2 3 2 2 3 3 2
5 3 4 5 5 6 6 6 5 5 4 2 2 1 1 1 1 1 2 1 2 2 2 2 2 2 1 2 2 3 4 4 4 4 3 3 3 2 1 2 3 3 3 3
6 5 5 5 6 6 6 6 6 5 5 4 2 2 3 2 1 1 2 2 2 3 2 2 3 2 2 2 3 3 4 5 5 4 4 4 4 4 2 2 2 3 4 4
5 5 5 6 6 6 7 7 7 6 5 3 2 2 2 2 1 2 2 2 3 3 3 3 3 3 2 2 3 4 5 5 5 4 4 4 3 3 3 3 3 2 3 5
5 6 6 6 6 7 8 7 7 6 5 2 2 1 2 2 2 2 1 2 3 3 3 3 3 3 2 3 4 4 5 4 4 4 4 3 3 3 3 3 2 2 2 3
7 7 7 7 7 7 8 8 7 6 4 2 2 2 2 2 2 2 2 2 3 4 3 2 3 2 3 4 4 4 4 5 5 4 4 4 4 4 3 3 3 3 2 2
7 7 7 7 6 7 8 7 6 5 3 3 2 2 2 2 3 3 3 3 3 3 2 2 2 2 3 4 5 4 4 4 5 5 4 4 4 4 4 3 3 2 2 3
7 7 7 7 6 7 7 6 6 5 3 3 3 3 3 3 3 3 3 3 3 3 3 3 2 2 4 4 4 4 4 4 4 4 3 2 3 4 4 3 3 3 2 3
6 6 6 6 6 6 6 6 6 5 3 2 3 3 3 4 4 3 3 4 4 4 3 1 2 4 4 4 4 3 4 4 3 3 3 3 4 3 3 2 2 2 2 2
6 6 6 6 6 6 6 6 6 4 3 3 4 4 4 4 4 4 4 4 4 3 2 1 3 4 3 3 4 4 4 4 3 2 3 3 3 2 2 2 2 2 2 2
6 6 6 6 6 6 6 6 5 4 3 4 4 5 5 5 5 4 4 4 2 1 2 2 3 3 2 1 4 4 3 3 3 3 3 2 2 2 2 2 2 2 2 2
5 5 5 6 5 5 5 5 5 4 4 4 5 5 5 5 4 3 3 2 2 1 2 2 1 1 1 2 4 4 3 3 2 2 2 2 1 1 2 2 2 2 1 1
4 4 5 5 5 5 4 4 4 4 4 4 4 4 5 4 3 3 2 2 1 1 1 0 1 2 1 2 2 3 2 2 2 2 2 1 1 1 1 2 1 1 1 1
3 3 3 4 4 4 4 4 4 4 4 4 3 3 4 3 2 2 1 1 2 2 1 2 2 1 2 2 2 2 1 1 1 1 1 1 1 1 1 1 1 1 0 1
2 3 3 3 3 3 3 3 3 3 3 2 2 2 3 2 1 1 0 1 2 2 1 2 2 2 2 1 1 1 1 2 2 2 1 1 1 1 1 1 1 1 1 1
2 2 2 2 3 2 2 1 1 1 1 1 0 0 0 1 1 1 1 1 2 2 1 1 1 1 1 1 1 1 2 2 1 1 2 2 2 2 2 2 2 2 2 2
1 1 1 2 2 2 2 1 0 0 1 1 1 1 1 1 1 1 1 1 2 1 1 1 1 0 1 1 1 1 1 2 2 1 2 2 2 2 2 2 2 2 2 2
Wind_Direction
267 266 257 269 269 267 262 265 269 269 256 205 146 125 123 123 124 126 127 124 119 133 130 131 132 135 140 152 156 163 161 168 174 184 195 212 216 214 214 229 236 239 245 248
273 266 259 263 266 269 272 274 270 273 261 173 125 114 114 126 133 126 128 131 144 148 144 150 151 146 148 155 156 154 161 175 168 178 193 211 230 222 206 217 236 240 239 245
272 272 271 256 257 264 266 277 284 282 265 174 136 126 139 145 127 114 114 140 153 148 149 153 157 149 152 153 152 157 168 172 168 191 211 224 242 226 216 221 220 228 235 237
265 265 259 269 274 267 277 289 304 327 338 63 87 102 85 108 111 104 102 99 130 154 155 155 159 157 153 156 155 168 176 174 179 201 215 220 238 233 225 227 232 236 235 232
262 261 261 270 297 298 290 287 306 305 316 347 71 117 105 85 81 83 91 89 124 159 159 154 157 154 160 171 174 187 196 195 204 215 229 228 233 235 227 231 235 236 234 230
255 262 265 276 292 289 276 250 310 324 342 8 188 250 97 82 79 79 67 54 49 107 156 148 150 159 178 195 191 202 209 215 216 215 231 240 237 249 243 238 239 245 244 236
253 259 262 298 306 293 273 324 17 18 18 355 44 60 84 87 80 70 66 55 41 51 109 125 137 155 188 204 208 216 212 215 218 222 231 234 231 237 241 238 244 243 247 243
249 257 257 303 292 308 358 9 22 18 30 33 59 83 86 84 85 82 70 59 31 24 69 113 150 175 206 210 207 203 209 220 226 232 247 244 235 238 234 231 238 240 241 243
254 255 257 293 300 333 337 2 21 23 35 25 64 101 94 101 104 97 81 43 348 348 25 88 162 192 219 217 203 208 220 231 233 237 244 239 229 240 235 228 236 237 231 231
277 263 283 302 348 337 333 334 350 12 11 340 48 85 74 47 82 73 54 66 307 296 289 248 242 250 229 207 196 215 237 242 237 232 233 236 231 234 236 233 235 239 239 240
279 283 291 302 327 331 333 329 333 339 340 345 6 116 91 38 306 233 250 295 297 289 278 261 253 258 251 225 225 235 243 245 244 240 235 227 229 253 256 252 237 240 245 242
278 293 293 296 315 316 316 318 322 322 318 309 291 266 232 236 244 283 288 299 304 291 269 256 247 250 247 234 242 245 248 252 251 243 234 227 221 231 301 242 212 210 212 207
300 310 306 305 306 307 310 307 302 295 292 292 289 280 260 241 233 244 271 275 274 281 272 259 255 254 254 240 248 254 257 254 254 246 236 233 226 222 226 243 242 230 224 205
308 310 300 299 301 300 296 295 290 279 272 267 268 276 286 264 246 249 264 285 282 280 270 261 253 255 258 249 244 251 259 256 257 254 254 243 235 232 230 221 220 230 233 212
290 284 281 283 282 278 279 279 279 275 273 270 281 280 280 266 259 262 264 282 284 275 271 261 256 262 259 250 244 251 257 253 251 259 262 257 245 243 243 241 226 213 198 195
281 280 277 276 276 274 273 269 270 270 270 274 274 271 267 268 272 277 275 272 270 276 286 283 267 262 270 266 254 247 253 263 255 253 249 241 237 239 240 229 220 212 212 199
265 269 274 270 271 277 276 271 271 272 272 278 281 278 270 263 275 280 267 267 269 270 267 255 261 272 274 268 258 253 254 250 248 248 247 253 250 242 236 226 221 222 205 197
264 269 273 278 281 280 279 276 272 269 268 282 289 281 269 257 267 278 278 275 274 276 266 247 247 269 274 272 264 258 256 250 241 237 242 252 260 252 244 235 216 204 195 191
275 278 282 287 288 285 282 278 277 276 275 276 273 267 263 259 258 259 259 259 264 262 266 265 238 252 260 262 273 262 252 252 249 228 224 222 238 248 244 236 224 216 213 198
284 288 283 279 281 282 280 273 270 264 258 258 260 259 259 259 254 247 248 252 250 255 243 228 231 243 239 241 264 258 253 252 250 238 229 222 228 243 242 234 224 221 218 207
277 277 277 275 278 278 281 277 269 260 255 249 253 256 258 257 246 237 241 248 250 260 240 217 227 232 235 247 251 257 257 255 250 244 239 233 237 247 249 238 230 235 224 228
289 290 289 288 283 278 280 278 269 259 254 247 246 250 253 249 242 233 228 242 245 224 237 229 215 109 1 265 245 252 246 241 243 245 249 240 239 245 259 258 253 251 239 245
295 292 291 293 291 286 284 282 277 267 256 250 246 243 241 240 235 230 232 222 215 199 228 123 93 95 321 264 259 267 274 266 245 245 255 259 262 256 262 272 276 293 296 274
297 300 302 303 300 295 288 282 282 278 268 253 240 239 235 221 232 238 237 158 153 158 171 119 129 162 254 254 264 271 291 304 310 314 289 262 248 252 263 273 294 328 329 285
287 288 292 294 287 283 277 265 255 251 247 240 225 231 232 196 195 201 188 137 145 158 165 151 178 212 234 266 336 10 17 19 16 359 327 312 324 342 355 15 19 350 342 335
282 278 286 280 288 292 291 289 264 211 222 234 186 93 72 94 103 132 151 170 145 130 130 127 165 203 229 328 10 28 31 24 20 9 16 22 20 16 11 8 3 351 351 7
258 283 289 280 285 291 296 304 341 65 48 69 87 85 64 76 91 97 101 109 123 129 112 84 76 34 29 31 24 11 14 10 12 12 1 15 21 13 355 357 3 8 4 14